Weather History for Novato, CA

Change the Weather History Date:

Thursday, November 15, 2012

  Actual Average (KAPC) Record (KAPC)
Temperature  
Mean Temperature 54 °F 51 °F  
Max Temperature 64 °F 64 °F 84 °F (2010)
Min Temperature 44 °F 39 °F 28 °F (1978)
Degree Days  
Heating Degree Days 11    
Month to date heating degree days  
Since 1 July heating degree days  
Cooling Degree Days 0    
Month to date cooling degree days  
Year to date cooling degree days  
Growing Degree Days 4 (Base 50)    
Moisture  
Dew Point 49 °F    
Average Humidity 82    
Maximum Humidity 100    
Minimum Humidity 52    
Precipitation  
Precipitation 0.00 in - 1.45 in (1931)
Month to date precipitation  
Year to date precipitation  
Since 1 July precipitation  
Sea Level Pressure  
Sea Level Pressure 30.01 in    
Wind  
Wind Speed 5 mph (South)    
Max Wind Speed 14 mph    
Max Gust Speed 20 mph    
Visibility 10 miles    
Events      
T = Trace of Precipitation, MM = Missing Value Source: NWS Daily Summary

Daily Weather History Graph

Daily Weather History Graph

Search for Another Location

Airport:

Trip Planner

Search our weather history database for the weather conditions in past years. The results will help you decide how hot, cold, wet, or windy it might be!

Date:

Astronomy

Nov. 15, 2012 Rise Set
Actual Time 6:51 AM PST 4:57 PM PST
Civil Twilight 6:23 AM PST 5:25 PM PST
Nautical Twilight 5:51 AM PST 5:57 PM PST
Astronomical Twilight 5:20 AM PST 6:28 PM PST
Moon 8:52 AM PST (11/15) 6:56 PM PST (11/15)
Length of Visible Light 11h 02m
Length of Day
10h 05m
Waxing Crescent, 5% of the Moon is Illuminated
Nov 15
Waxing Crescent
Nov 20
First Quarter
Nov 28
Full
Dec 6
Last Quarter
Dec 13
New

Hourly Weather History & Observations

Time (PST) Temp. Windchill Dew Point Humidity Pressure Visibility Wind Dir Wind Speed Gust Speed Precip Events Conditions
12:15 AM 46.4 °F 43.5 °F 46.4 °F 100% 30.03 in 10.0 mi South 5.8 mph - N/A   Clear
12:55 AM 46.4 °F 42.9 °F 46.4 °F 100% 30.02 in 10.0 mi South 6.9 mph - N/A   Clear
1:15 AM 46.4 °F 45.2 °F 46.4 °F 100% 30.02 in 10.0 mi South 3.5 mph - N/A   Clear
1:35 AM 46.4 °F 43.5 °F 46.4 °F 100% 30.01 in 10.0 mi South 5.8 mph - N/A   Clear
1:55 AM 46.4 °F 43.5 °F 46.4 °F 100% 30.02 in 10.0 mi South 5.8 mph - N/A   Clear
2:15 AM 46.4 °F 43.5 °F 46.4 °F 100% 30.02 in 10.0 mi South 5.8 mph - N/A   Clear
2:35 AM 46.4 °F 45.2 °F 46.4 °F 100% 30.01 in 10.0 mi South 3.5 mph - N/A   Clear
2:55 AM 46.4 °F 44.3 °F 46.4 °F 100% 30.01 in 10.0 mi South 4.6 mph - N/A   Clear
3:15 AM 46.4 °F 44.3 °F 46.4 °F 100% 30.01 in 10.0 mi South 4.6 mph - N/A   Clear
3:35 AM 46.4 °F - 46.4 °F 100% 30.00 in 10.0 mi Calm Calm - N/A   Clear
3:55 AM 46.4 °F 43.5 °F 46.4 °F 100% 30.00 in 10.0 mi South 5.8 mph - N/A   Clear
4:15 AM 46.4 °F 44.3 °F 46.4 °F 100% 30.00 in 10.0 mi SSW 4.6 mph - N/A   Clear
4:35 AM 44.6 °F 40.7 °F 44.6 °F 100% 30.00 in 10.0 mi South 6.9 mph - N/A   Clear
4:55 AM 44.6 °F 40.7 °F 44.6 °F 100% 29.99 in 10.0 mi South 6.9 mph - N/A   Clear
5:15 AM 46.4 °F 43.5 °F 44.6 °F 93% 30.00 in 10.0 mi SW 5.8 mph - N/A   Clear
5:35 AM 46.4 °F 43.5 °F 46.4 °F 100% 29.99 in 10.0 mi SSW 5.8 mph - N/A   Clear
5:55 AM 46.4 °F 42.4 °F 46.4 °F 100% 30.00 in 10.0 mi SW 8.1 mph - N/A   Clear
6:15 AM 50.0 °F - 50.0 °F 100% 30.00 in 10.0 mi SW 6.9 mph - N/A   Clear
6:35 AM 50.0 °F - 50.0 °F 100% 30.01 in 10.0 mi SSW 6.9 mph - N/A   Clear
6:55 AM 51.8 °F - 50.0 °F 94% 30.01 in 10.0 mi SW 6.9 mph - N/A   Clear
7:15 AM 50.0 °F - 50.0 °F 100% 30.01 in 10.0 mi SSW 3.5 mph - N/A   Clear
7:35 AM 48.2 °F - 48.2 °F 100% 30.02 in 7.0 mi South 6.9 mph - N/A   Clear
7:55 AM 53.6 °F - 50.0 °F 88% 30.02 in 10.0 mi SSW 5.8 mph - N/A   Clear
8:15 AM 55.4 °F - 50.0 °F 82% 30.02 in 10.0 mi SSW 6.9 mph - N/A   Clear
8:35 AM 55.4 °F - 50.0 °F 82% 30.03 in 10.0 mi SSW 5.8 mph - N/A   Clear
8:55 AM 55.4 °F - 50.0 °F 82% 30.04 in 10.0 mi SSW 8.1 mph - N/A   Clear
9:15 AM 57.2 °F - 50.0 °F 77% 30.04 in 10.0 mi SSW 8.1 mph - N/A   Clear
9:35 AM 59.0 °F - 50.0 °F 72% 30.05 in 10.0 mi SSE 6.9 mph - N/A   Clear
9:55 AM 59.0 °F - 50.0 °F 72% 30.05 in 10.0 mi SSE 4.6 mph - N/A   Clear
10:15 AM 59.0 °F - 50.0 °F 72% 30.04 in 10.0 mi SE 4.6 mph - N/A   Clear
10:35 AM 59.0 °F - 50.0 °F 72% 30.03 in 10.0 mi South 6.9 mph - N/A   Clear
10:55 AM 60.8 °F - 50.0 °F 68% 30.03 in 10.0 mi SSE 4.6 mph - N/A   Clear
11:15 AM 62.6 °F - 50.0 °F 63% 30.02 in 10.0 mi SSE 4.6 mph - N/A   Clear
11:35 AM 62.6 °F - 50.0 °F 63% 30.01 in 10.0 mi South 8.1 mph - N/A   Clear
11:55 AM 62.6 °F - 50.0 °F 63% 30.01 in 10.0 mi South 8.1 mph - N/A   Clear
12:15 PM 64.4 °F - 50.0 °F 59% 30.01 in 10.0 mi SSW 10.4 mph - N/A   Clear
12:35 PM 64.4 °F - 51.8 °F 64% 30.00 in 10.0 mi SSE 4.6 mph - N/A   Clear
12:55 PM 64.4 °F - 50.0 °F 59% 29.99 in 10.0 mi East 3.5 mph - N/A   Clear
1:15 PM 64.4 °F - 50.0 °F 59% 29.99 in 10.0 mi SE 4.6 mph - N/A   Clear
1:35 PM 64.4 °F - 50.0 °F 59% 29.98 in 10.0 mi SE 3.5 mph - N/A   Clear
1:55 PM 64.4 °F - 50.0 °F 59% 29.98 in 10.0 mi SE 4.6 mph - N/A   Clear
2:15 PM 64.4 °F - 48.2 °F 56% 29.97 in 10.0 mi SE 4.6 mph - N/A   Clear
2:35 PM 64.4 °F - 48.2 °F 56% 29.97 in 10.0 mi SE 3.5 mph - N/A   Clear
2:55 PM 64.4 °F - 48.2 °F 56% 29.97 in 10.0 mi South 6.9 mph - N/A   Clear
3:15 PM 64.4 °F - 48.2 °F 56% 29.97 in 10.0 mi SSW 3.5 mph - N/A   Unknown
3:35 PM 64.4 °F - 46.4 °F 52% 29.97 in 8.0 mi South 5.8 mph - N/A   Clear
3:55 PM 62.6 °F - 46.4 °F 55% 29.98 in 8.0 mi SW 5.8 mph - N/A   Clear
4:15 PM 62.6 °F - 46.4 °F 55% 29.99 in 10.0 mi WSW 12.7 mph - N/A   Clear
4:35 PM 62.6 °F - 46.4 °F 55% 29.99 in 10.0 mi WSW 10.4 mph - N/A   Clear
4:55 PM 60.8 °F - 48.2 °F 63% 29.99 in 10.0 mi SW 13.8 mph 19.6 mph N/A   Clear
5:15 PM 59.0 °F - 50.0 °F 72% 29.99 in 10.0 mi SW 10.4 mph - N/A   Clear
5:35 PM 59.0 °F - 51.8 °F 77% 29.99 in 10.0 mi SW 11.5 mph - N/A   Clear
5:55 PM 59.0 °F - 51.8 °F 77% 29.99 in 10.0 mi SSW 6.9 mph - N/A   Clear
6:15 PM 59.0 °F - 51.8 °F 77% 29.99 in 10.0 mi Calm Calm - N/A   Clear
6:35 PM 53.6 °F - 50.0 °F 88% 29.99 in 10.0 mi East 3.5 mph - N/A   Clear
6:55 PM 55.4 °F - 51.8 °F 88% 30.00 in 10.0 mi Calm Calm - N/A   Clear
7:15 PM 53.6 °F - 50.0 °F 88% 29.99 in 10.0 mi Calm Calm - N/A   Clear
7:35 PM 55.4 °F - 50.0 °F 82% 29.99 in 10.0 mi Calm Calm - N/A   Clear
7:55 PM 53.6 °F - 50.0 °F 88% 30.00 in 10.0 mi Calm Calm - N/A   Clear
8:15 PM 53.6 °F - 50.0 °F 88% 30.01 in 10.0 mi Calm Calm - N/A   Clear
8:35 PM 53.6 °F - 50.0 °F 88% 30.01 in 10.0 mi NNE 3.5 mph - N/A   Clear
8:55 PM 53.6 °F - 50.0 °F 88% 30.02 in 10.0 mi Calm Calm - N/A   Clear
9:15 PM 53.6 °F - 50.0 °F 88% 30.02 in 10.0 mi NW 4.6 mph - N/A   Clear
9:35 PM 53.6 °F - 50.0 °F 88% 30.02 in 10.0 mi NNE 3.5 mph - N/A   Clear
9:55 PM 51.8 °F - 50.0 °F 94% 30.02 in 10.0 mi Calm Calm - N/A   Clear
10:15 PM 53.6 °F - 50.0 °F 88% 30.02 in 10.0 mi Calm Calm - N/A   Clear
10:35 PM 53.6 °F - 50.0 °F 88% 30.02 in 10.0 mi South 4.6 mph - N/A   Clear
10:55 PM 53.6 °F - 51.8 °F 94% 30.02 in 10.0 mi SSW 3.5 mph - N/A   Clear
11:15 PM 53.6 °F - 50.0 °F 88% 30.02 in 10.0 mi Calm Calm - N/A   Clear
11:35 PM 50.0 °F - 50.0 °F 100% 30.02 in 10.0 mi NNE 3.5 mph - N/A   Clear
11:55 PM 48.2 °F - 48.2 °F 100% 30.02 in 10.0 mi Calm Calm - N/A   Scattered Clouds